LEDSAT

Last updated on Thu Nov 21 2024 00:03:02 GMT+0000 (Coordinated Universal Time)

1 49069U 21073D 24325.16579763 .00043515 00000+0 12305-2 0 9991 2 49069 97.4188 36.1470 0015827 90.2399 270.0658 15.36070788180296
UTC large
Height (km)
Speed (km/s)
/
Latitude / Longitude
Inclination (degrees)
Orbital Period (minutes)
Azimuth
Elevation
Range (km)
Doppler Factor

Next 0 passes for location: London (51.5072 / 0.1276)

Sorry there are no passes over London.